DW8343 Weather Reports


Display with metric or nautical units.
time (UTC)temp
F
wind
direction
speed
MPH
gust
MPH
rain 1hr
in
rain 24hr
in
rain mn
in
humidity
%
barometer
mb
20260905022010 91 273 2.0 3.0 0.00 0.00 0.00 49 1013.9
20260905021510 92 352 1.0 2.0 0.00 0.00 0.00 49 1013.7
20260905021005 92 226 2.0 2.0 0.00 0.00 0.00 49 1013.7
20260905020459 92 275 2.0 2.0 0.00 0.00 0.00 48 1013.5
20260905015954 92 219 1.0 3.0 0.00 0.00 0.00 48 1013.6
20260905015452 92 36 2.0 6.0 0.00 0.00 0.00 48 1013.5
20260905014952 92 117 0.0 4.0 0.00 0.00 0.00 48 1013.4
20260905014447 93 177 0.0 1.0 0.00 0.00 0.00 48 1013.3
20260905013942 93 62 1.0 3.0 0.00 0.00 0.00 47 1013.3
20260905013439 93 45 3.0 4.0 0.00 0.00 0.00 47 1013.2
20260905012933 93 43 1.0 2.0 0.00 0.00 0.00 47 1013.2
20260905012428 94 118 2.0 4.0 0.00 0.00 0.00 47 1013.1
20260905011925 94 31 1.0 7.0 0.00 0.00 0.00 47 1013.0
20260905011421 94 282 0.0 3.0 0.00 0.00 0.00 46 1012.6
20260905010916 94 297 0.0 2.0 0.00 0.00 0.00 46 1013.0
20260905010411 94 307 1.0 2.0 0.00 0.00 0.00 46 1012.7
20260905005907 94 23 1.0 8.0 0.00 0.00 0.00 45 1012.6
20260905005403 95 62 3.0 3.0 0.00 0.00 0.00 45 1012.7
20260905004857 95 15 1.0 4.0 0.00 0.00 0.00 45 1012.7
20260905004352 95 102 1.0 4.0 0.00 0.00 0.00 45 1012.6
20260905003847 95 103 2.0 4.0 0.00 0.00 0.00 45 1012.5
20260905003343 95 84 1.0 2.0 0.00 0.00 0.00 45 1012.6
20260905002838 96 262 1.0 4.0 0.00 0.00 0.00 44 1012.7
20260905002338 96 259 3.0 4.0 0.00 0.00 0.00 44 1012.7
20260905001832 96 64 0.0 2.0 0.00 0.00 0.00 44 1012.6
20260905001327 96 295 2.0 6.0 0.00 0.00 0.00 44 1012.5
20260905000822 96 322 1.0 4.0 0.00 0.00 0.00 43 1012.5
20260905000318 97 209 1.0 4.0 0.00 0.00 0.00 43 1012.5
20260904235812 97 269 1.0 3.0 0.00 0.00 0.00 43 1012.6
20260904235305 97 28 2.0 3.0 0.00 0.00 0.00 43 1012.6
20260904234757 97 31 0.0 1.0 0.00 0.00 0.00 42 1012.4
20260904234252 97 79 4.0 8.0 0.00 0.00 0.00 42 1012.7
20260904233748 97 270 2.0 8.0 0.00 0.00 0.00 42 1012.7
20260904233244 98 58 2.0 3.0 0.00 0.00 0.00 42 1012.5
20260904232741 97 52 2.0 3.0 0.00 0.00 0.00 42 1012.7
20260904232236 98 41 2.0 6.0 0.00 0.00 0.00 42 1012.6
20260904231731 98 108 1.0 2.0 0.00 0.00 0.00 42 1012.7
20260904231227 98 8 1.0 3.0 0.00 0.00 0.00 42 1012.6
20260904230727 98 261 1.0 6.0 0.00 0.00 0.00 42 1012.6
20260904230221 98 133 2.0 6.0 0.00 0.00 0.00 42 1012.6
20260904225720 98 117 1.0 6.0 0.00 0.00 0.00 42 1012.5
20260904225215 98 59 3.0 4.0 0.00 0.00 0.00 42 1012.6
20260904224714 98 11 0.0 2.0 0.00 0.00 0.00 42 1012.5
20260904224209 98 254 1.0 6.0 0.00 0.00 0.00 42 1012.5
20260904223708 98 115 0.0 4.0 0.00 0.00 0.00 43 1012.5
20260904223203 98 55 3.0 6.0 0.00 0.00 0.00 42 1012.4
20260904222659 98 13 2.0 9.0 0.00 0.00 0.00 42 1012.6
20260904222155 99 292 0.0 7.0 0.00 0.00 0.00 42 1012.6
20260904221653 99 318 0.0 2.0 0.00 0.00 0.00 42 1012.7
20260904221148 99 329 2.0 7.0 0.00 0.00 0.00 42 1012.4
20260904220638 98 71 3.0 3.0 0.00 0.00 0.00 42 1012.5
20260904220133 98 266 4.0 6.0 0.00 0.00 0.00 43 1012.6
20260904215627 99 271 6.0 8.0 0.00 0.00 0.00 42 1012.6
20260904215123 101 222 4.0 9.0 0.00 0.00 0.00 40 1012.5
20260904214623 100 171 4.0 10.0 0.00 0.00 0.00 41 1012.7
20260904214119 100 37 1.0 4.0 0.00 0.00 0.00 40 1012.6
20260904213617 101 296 1.0 6.0 0.00 0.00 0.00 41 1012.7
20260904213113 101 220 0.0 2.0 0.00 0.00 0.00 40 1012.7
20260904212608 102 281 2.0 3.0 0.00 0.00 0.00 40 1012.7
20260904212103 101 10 0.0 7.0 0.00 0.00 0.00 40 1012.7
20260904211602 101 210 3.0 6.0 0.00 0.00 0.00 40 1012.8
20260904211058 103 152 2.0 3.0 0.00 0.00 0.00 37 1012.7
20260904210557 102 279 4.0 6.0 0.00 0.00 0.00 37 1013.0
20260904210053 102 252 2.0 4.0 0.00 0.00 0.00 37 1013.0
20260904205549 101 293 2.0 8.0 0.00 0.00 0.00 39 1013.1
20260904205045 101 352 1.0 7.0 0.00 0.00 0.00 38 1013.1
20260904204541 99 109 2.0 4.0 0.00 0.00 0.00 40 1013.3
20260904204037 101 57 3.0 7.0 0.00 0.00 0.00 39 1013.4
20260904203532 102 254 2.0 7.0 0.00 0.00 0.00 38 1013.4
20260904203029 101 38 6.0 9.0 0.00 0.00 0.00 39 1013.4
20260904202524 102 48 3.0 7.0 0.00 0.00 0.00 39 1013.6
20260904202021 101 257 1.0 6.0 0.00 0.00 0.00 37 1013.5
20260904201515 101 305 1.0 11.0 0.00 0.00 0.00 40 1013.4
20260904201011 101 45 3.0 7.0 0.00 0.00 0.00 38 1013.7
20260904200509 101 102 1.0 11.0 0.00 0.00 0.00 40 1013.7
20260904200005 101 106 2.0 10.0 0.00 0.00 0.00 38 1013.7
20260904195503 101 66 5.0 7.0 0.00 0.00 0.00 39 1013.6
20260904195002 100 167 1.0 7.0 0.00 0.00 0.00 40 1013.5
20260904194457 101 18 1.0 4.0 0.00 0.00 0.00 40 1013.9
20260904193952 101 292 2.0 4.0 0.00 0.00 0.00 40 1013.7
20260904193447 100 243 2.0 6.0 0.00 0.00 0.00 40 1014.0
20260904192943 99 318 0.0 3.0 0.00 0.00 0.00 41 1013.8
20260904192437 99 37 3.0 4.0 0.00 0.00 0.00 41 1013.8
20260904191934 100 288 2.0 6.0 0.00 0.00 0.00 41 1014.0
20260904191430 99 351 0.0 4.0 0.00 0.00 0.00 41 1014.0
20260904190926 100 52 2.0 8.0 0.00 0.00 0.00 42 1014.0
20260904190421 98 283 1.0 6.0 0.00 0.00 0.00 42 1014.0
20260904185917 98 275 1.0 8.0 0.00 0.00 0.00 42 1014.0
20260904185413 98 283 4.0 8.0 0.00 0.00 0.00 42 1014.2
20260904184913 98 269 4.0 6.0 0.00 0.00 0.00 42 1014.2
20260904184408 99 2 2.0 8.0 0.00 0.00 0.00 42 1014.2
20260904183903 99 129 5.0 8.0 0.00 0.00 0.00 42 1014.6
20260904183358 99 259 3.0 3.0 0.00 0.00 0.00 42 1014.3
20260904182853 97 245 3.0 6.0 0.00 0.00 0.00 44 1014.5
20260904182348 98 262 3.0 6.0 0.00 0.00 0.00 45 1014.5
20260904181843 98 298 1.0 4.0 0.00 0.00 0.00 46 1014.5
20260904181338 97 285 2.0 6.0 0.00 0.00 0.00 46 1014.6
20260904180834 98 31 2.0 4.0 0.00 0.00 0.00 46 1014.8
20260904180329 96 265 1.0 4.0 0.00 0.00 0.00 48 1014.7
20260904175828 96 61 2.0 8.0 0.00 0.00 0.00 48 1014.8
20260904175326 96 9 2.0 7.0 0.00 0.00 0.00 48 1014.9
20260904174821 96 252 3.0 7.0 0.00 0.00 0.00 49 1014.8
20260904174317 95 227 2.0 6.0 0.00 0.00 0.00 49 1014.9
20260904173813 96 343 2.0 7.0 0.00 0.00 0.00 49 1015.0
20260904173308 95 337 2.0 8.0 0.00 0.00 0.00 50 1015.2
20260904172804 94 248 3.0 6.0 0.00 0.00 0.00 50 1015.2
20260904172305 94 5 4.0 6.0 0.00 0.00 0.00 51 1015.2
20260904171758 95 209 2.0 8.0 0.00 0.00 0.00 50 1015.2
20260904171253 94 13 2.0 7.0 0.00 0.00 0.00 49 1015.4
20260904170750 94 288 4.0 7.0 0.00 0.00 0.00 51 1015.5
20260904170245 94 258 4.0 7.0 0.00 0.00 0.00 51 1015.6
20260904165744 94 286 3.0 9.0 0.00 0.00 0.00 51 1015.5
20260904165238 94 176 1.0 6.0 0.00 0.00 0.00 52 1015.4
20260904164733 92 125 2.0 7.0 0.00 0.00 0.00 53 1015.4
20260904164228 93 274 2.0 3.0 0.00 0.00 0.00 52 1015.3
20260904163724 92 206 5.0 11.0 0.00 0.00 0.00 54 1015.7
20260904163219 92 322 3.0 4.0 0.00 0.00 0.00 54 1015.5
20260904162718 92 246 3.0 4.0 0.00 0.00 0.00 55 1015.7
20260904162213 92 253 1.0 4.0 0.00 0.00 0.00 55 1015.8
20260904161709 91 273 1.0 8.0 0.00 0.00 0.00 57 1015.6
20260904161204 91 340 4.0 4.0 0.00 0.00 0.00 57 1015.6
20260904160700 91 354 2.0 6.0 0.00 0.00 0.00 57 1015.7
20260904160155 90 220 2.0 7.0 0.00 0.00 0.00 58 1015.5
20260904155649 89 229 2.0 4.0 0.00 0.00 0.00 59 1015.5
20260904155148 89 300 3.0 6.0 0.00 0.00 0.00 59 1015.5
20260904154648 89 281 2.0 6.0 0.00 0.00 0.00 59 1015.3
20260904154147 89 252 2.0 8.0 0.00 0.00 0.00 60 1015.3
20260904153643 88 170 2.0 9.0 0.00 0.00 0.00 62 1015.4
20260904153138 89 321 3.0 3.0 0.00 0.00 0.00 60 1015.5
20260904152635 88 113 2.0 8.0 0.00 0.00 0.00 62 1015.4
20260904152130 88 260 3.0 8.0 0.00 0.00 0.00 62 1015.6
20260904151625 87 325 3.0 6.0 0.00 0.00 0.00 63 1015.7
20260904151123 87 240 5.0 7.0 0.00 0.00 0.00 63 1015.5
20260904150619 87 254 3.0 9.0 0.00 0.00 0.00 64 1015.5
20260904150115 87 196 5.0 6.0 0.00 0.00 0.00 65 1015.5
20260904145613 86 317 1.0 4.0 0.00 0.00 0.00 66 1015.4
20260904145108 85 259 4.0 6.0 0.00 0.00 0.00 67 1015.4
20260904144604 85 221 4.0 6.0 0.00 0.00 0.00 67 1015.5
20260904144059 85 83 2.0 3.0 0.00 0.00 0.00 67 1015.3
20260904143555 84 243 3.0 7.0 0.00 0.00 0.00 69 1015.5
20260904143052 83 21 0.0 1.0 0.00 0.00 0.00 70 1015.4
20260904142548 83 271 1.0 2.0 0.00 0.00 0.00 71 1015.5
20260904142043 82 49 2.0 4.0 0.00 0.00 0.00 71 1015.4
20260904141538 82 258 3.0 6.0 0.00 0.00 0.00 71 1015.7
20260904141033 82 339 2.0 4.0 0.00 0.00 0.00 71 1015.4
20260904140533 82 75 0.0 6.0 0.00 0.00 0.00 72 1015.5
20260904140028 82 16 2.0 6.0 0.00 0.00 0.00 72 1015.6
20260904135527 81 49 2.0 3.0 0.00 0.00 0.00 72 1015.5
20260904135024 81 280 1.0 6.0 0.00 0.00 0.00 73 1015.4
20260904134519 81 301 2.0 8.0 0.00 0.00 0.00 73 1015.6
20260904134013 81 264 1.0 6.0 0.00 0.00 0.00 73 1015.5
20260904133508 80 258 1.0 4.0 0.00 0.00 0.00 75 1015.4
20260904133004 80 235 2.0 2.0 0.00 0.00 0.00 75 1015.6
20260904132503 79 229 2.0 6.0 0.00 0.00 0.00 75 1015.4
20260904131958 79 236 3.0 4.0 0.00 0.00 0.00 76 1015.3
20260904131453 78 51 2.0 2.0 0.00 0.00 0.00 77 1015.4
20260904130949 78 20 0.0 3.0 0.00 0.00 0.00 78 1015.3
20260904130447 77 183 2.0 4.0 0.00 0.00 0.00 78 1015.3
20260904125942 77 117 1.0 8.0 0.00 0.00 0.00 78 1015.2
20260904125439 77 26 2.0 4.0 0.00 0.00 0.00 79 1015.4
20260904124933 77 3 0.0 4.0 0.00 0.00 0.00 79 1015.1
20260904124429 77 269 1.0 2.0 0.00 0.00 0.00 79 1015.1
20260904123924 77 217 0.0 7.0 0.00 0.00 0.00 79 1015.1
20260904123419 77 342 1.0 3.0 0.00 0.00 0.00 80 1015.0
20260904122914 77 173 2.0 2.0 0.00 0.00 0.00 80 1014.9
20260904122414 77 132 1.0 3.0 0.00 0.00 0.00 80 1014.7
20260904121908 77 103 1.0 2.0 0.00 0.00 0.00 80 1014.9
20260904121405 77 152 2.0 3.0 0.00 0.00 0.00 80 1014.9
20260904120901 76 162 1.0 2.0 0.00 0.00 0.00 80 1014.6
20260904120357 76 307 1.0 3.0 0.00 0.00 0.00 80 1014.6
20260904115852 76 290 0.0 2.0 0.00 0.00 0.00 80 1014.6
20260904115347 76 156 0.0 2.0 0.00 0.00 0.00 80 1014.6
20260904114841 77 61 1.0 2.0 0.00 0.00 0.00 80 1014.6
20260904114336 77 23 1.0 2.0 0.00 0.00 0.00 80 1014.6
20260904113831 77 20 0.0 2.0 0.00 0.00 0.00 80 1014.7
20260904113330 77 155 1.0 2.0 0.00 0.00 0.00 80 1014.7
20260904112825 77 153 1.0 2.0 0.00 0.00 0.00 80 1014.5
20260904112321 77 288 1.0 2.0 0.00 0.00 0.00 80 1014.7
20260904111816 77 240 1.0 2.0 0.00 0.00 0.00 79 1014.6
20260904111312 77 91 2.0 2.0 0.00 0.00 0.00 79 1014.6
20260904110808 77 60 0.0 2.0 0.00 0.00 0.00 79 1014.7
20260904110307 77 32 2.0 3.0 0.00 0.00 0.00 79 1014.6
20260904105802 77 18 0.0 4.0 0.00 0.00 0.00 79 1014.5
20260904105305 77 334 1.0 2.0 0.00 0.00 0.00 79 1014.7
20260904104751 78 111 1.0 3.0 0.00 0.00 0.00 78 1014.6
20260904104247 78 19 1.0 3.0 0.00 0.00 0.00 78 1014.6
20260904103744 78 120 1.0 2.0 0.00 0.00 0.00 78 1014.6
20260904103243 78 245 0.0 2.0 0.00 0.00 0.00 78 1014.6
20260904102739 78 43 3.0 3.0 0.00 0.00 0.00 78 1014.6
20260904102234 78 69 2.0 3.0 0.00 0.00 0.00 77 1014.5
20260904101731 78 68 0.0 1.0 0.00 0.00 0.00 77 1014.5
20260904101226 78 93 1.0 3.0 0.00 0.00 0.00 76 1014.7
20260904100722 79 229 2.0 3.0 0.00 0.00 0.00 75 1014.7
20260904100218 79 20 2.0 6.0 0.00 0.00 0.00 75 1014.7
20260904095717 79 27 0.0 1.0 0.00 0.00 0.00 74 1014.8
20260904095212 79 297 0.0 1.0 0.00 0.00 0.00 73 1014.6
20260904094708 79 92 1.0 3.0 0.00 0.00 0.00 73 1014.5
20260904094203 80 151 1.0 4.0 0.00 0.00 0.00 73 1014.4
20260904093700 79 114 1.0 3.0 0.00 0.00 0.00 73 1014.6
20260904093159 79 248 0.0 3.0 0.00 0.00 0.00 74 1014.5
20260904092655 79 271 1.0 2.0 0.00 0.00 0.00 73 1014.3
20260904092151 79 102 0.0 2.0 0.00 0.00 0.00 74 1014.4
20260904091647 80 260 3.0 4.0 0.00 0.00 0.00 73 1014.6
20260904091147 80 41 1.0 1.0 0.00 0.00 0.00 72 1014.5
20260904090642 80 286 1.0 2.0 0.00 0.00 0.00 73 1014.4
20260904090138 80 252 0.0 3.0 0.00 0.00 0.00 73 1014.4
20260904085637 79 183 2.0 3.0 0.00 0.00 0.00 74 1014.5
20260904085132 80 263 1.0 2.0 0.00 0.00 0.00 74 1014.4
20260904084627 80 283 1.0 2.0 0.00 0.00 0.00 75 1014.4
20260904084124 80 183 2.0 4.0 0.00 0.00 0.00 75 1014.5
20260904083620 80 246 1.0 2.0 0.00 0.00 0.00 76 1014.5
20260904083115 80 263 1.0 2.0 0.00 0.00 0.00 76 1014.2
20260904082610 80 320 2.0 4.0 0.00 0.00 0.00 75 1014.4
20260904082106 80 259 1.0 4.0 0.00 0.00 0.00 76 1014.2
20260904081601 80 231 1.0 2.0 0.00 0.00 0.00 76 1014.2
20260904081056 80 276 1.0 2.0 0.00 0.00 0.00 75 1014.2
20260904080552 80 121 2.0 3.0 0.00 0.00 0.00 75 1014.0
20260904080048 80 1 0.0 3.0 0.00 0.00 0.00 76 1014.2
20260904075543 80 37 0.0 1.0 0.00 0.00 0.00 76 1014.1
20260904075038 80 42 1.0 3.0 0.00 0.00 0.00 76 1014.2
20260904074537 80 273 1.0 3.0 0.00 0.00 0.00 76 1014.1
20260904074032 80 224 1.0 2.0 0.00 0.00 0.00 77 1014.2
20260904073527 80 306 2.0 3.0 0.00 0.00 0.00 77 1014.3
20260904073023 80 259 2.0 3.0 0.00 0.00 0.00 77 1014.3
20260904072519 80 177 2.0 3.0 0.00 0.00 0.00 77 1014.3
20260904072014 80 242 0.0 3.0 0.00 0.00 0.00 76 1014.3
20260904071510 80 291 0.0 6.0 0.00 0.00 0.00 77 1014.2
20260904071004 80 20 1.0 3.0 0.00 0.00 0.00 77 1014.3
20260904070503 80 336 3.0 4.0 0.00 0.00 0.00 77 1014.4
20260904065957 80 241 2.0 3.0 0.00 0.00 0.00 76 1014.4
20260904065453 80 234 2.0 3.0 0.00 0.00 0.00 76 1014.4
20260904064948 80 288 3.0 6.0 0.00 0.00 0.00 76 1014.4
20260904064444 80 295 2.0 4.0 0.00 0.00 0.00 76 1014.4
20260904063939 80 76 0.0 6.0 0.00 0.00 0.00 76 1014.5
20260904063436 80 83 1.0 4.0 0.00 0.00 0.00 76 1014.5
20260904062931 80 63 1.0 6.0 0.00 0.00 0.00 76 1014.4
20260904062427 80 78 0.0 6.0 0.00 0.00 0.00 76 1014.5
20260904061922 81 272 1.0 3.0 0.00 0.00 0.00 76 1014.5
20260904061419 81 13 1.0 3.0 0.00 0.00 0.00 75 1014.6
20260904060915 81 222 3.0 6.0 0.00 0.00 0.00 75 1014.4
20260904060411 81 256 2.0 3.0 0.00 0.00 0.00 75 1014.6
20260904055906 81 338 3.0 6.0 0.00 0.00 0.00 75 1014.7
20260904055401 81 193 2.0 3.0 0.00 0.00 0.00 75 1014.7
20260904054856 81 67 2.0 3.0 0.00 0.00 0.00 74 1014.6
20260904054352 81 16 3.0 4.0 0.00 0.00 0.00 74 1014.4
20260904053848 81 82 2.0 2.0 0.00 0.00 0.00 74 1014.4
20260904053346 82 3 3.0 4.0 0.00 0.00 0.00 74 1014.5
20260904052843 82 325 1.0 2.0 0.00 0.00 0.00 73 1014.4
20260904052339 82 227 2.0 6.0 0.00 0.00 0.00 73 1014.4
20260904051834 82 230 1.0 3.0 0.00 0.00 0.00 73 1014.4
20260904051325 82 293 1.0 3.0 0.00 0.00 0.00 73 1014.2
20260904050819 82 176 2.0 6.0 0.00 0.00 0.00 72 1014.2
20260904050316 82 87 2.0 2.0 0.00 0.00 0.00 72 1014.4
20260904045810 82 273 1.0 3.0 0.00 0.00 0.00 72 1014.3
20260904045307 82 224 0.0 6.0 0.00 0.00 0.00 72 1014.4
20260904044800 82 345 0.0 4.0 0.00 0.00 0.00 72 1014.2
20260904044257 82 186 1.0 4.0 0.00 0.00 0.00 71 1014.3
20260904043752 82 165 1.0 6.0 0.00 0.00 0.00 71 1014.4
20260904043249 82 282 1.0 3.0 0.00 0.00 0.00 71 1014.5
20260904042743 83 39 1.0 3.0 0.00 0.00 0.00 71 1014.4
20260904042240 83 34 3.0 4.0 0.00 0.00 0.00 70 1014.5
20260904041739 83 69 2.0 4.0 0.00 0.00 0.00 70 1014.5
20260904041236 83 64 1.0 6.0 0.00 0.00 0.00 70 1014.5
20260904040731 83 29 0.0 3.0 0.00 0.00 0.00 69 1014.5
20260904040227 83 210 1.0 4.0 0.00 0.00 0.00 69 1014.5
20260904035723 83 36 3.0 9.0 0.00 0.00 0.00 69 1014.5
20260904035218 84 16 1.0 3.0 0.00 0.00 0.00 68 1014.7
20260904034717 84 259 2.0 3.0 0.00 0.00 0.00 68 1014.6
20260904034213 84 78 0.0 3.0 0.00 0.00 0.00 68 1014.8
20260904033708 84 313 1.0 3.0 0.00 0.00 0.00 67 1014.5
20260904033205 84 100 2.0 3.0 0.00 0.00 0.00 67 1014.5
20260904032701 85 313 1.0 7.0 0.00 0.00 0.00 66 1014.7
20260904032159 85 201 0.0 3.0 0.00 0.00 0.00 66 1014.3
20260904031654 85 116 3.0 3.0 0.00 0.00 0.00 66 1014.6
20260904031149 85 39 1.0 2.0 0.00 0.00 0.00 66 1014.6
20260904030645 85 306 3.0 4.0 0.00 0.00 0.00 65 1014.4
20260904030140 85 76 2.0 2.0 0.00 0.00 0.00 65 1014.4
20260904025636 85 2 1.0 4.0 0.00 0.00 0.00 65 1014.4
20260904025131 85 40 1.0 2.0 0.00 0.00 0.00 65 1014.2
20260904024626 86 75 3.0 4.0 0.00 0.00 0.00 64 1014.5
20260904024122 86 239 1.0 7.0 0.00 0.00 0.00 64 1014.1
20260904023617 86 280 1.0 2.0 0.00 0.00 0.00 64 1014.1
20260904023108 86 27 2.0 6.0 0.00 0.00 0.00 64 1014.0
20260904022608 86 252 1.0 3.0 0.00 0.00 0.00 63 1014.0